User: anonymous
Location: Holcomb Observatory
(44.4922°N, 73.1654°W)
Time: 00:32:37
(UTC-04:00)
Language:

SL-16 R/B - Orbit

View from above orbital plane
View from above orbital plane
View from above satellite
View from above satellite

Ground track
Ground track

The orbit data is extracted from the following two-line orbital elements,

1 27006U 01056F   14110.47321605  .00000008  00000-0  55304-4 0  1094
2 27006 099.1602 281.0781 0015523 084.9363 332.8372 13.70915437618418
Epoch (UTC): 20 April 2014 11:21:25
Eccentricity: 0.0015523
inclination: 99.1602°
perigee height: 985 km
apogee height: 1008 km
right ascension of ascending node: 281.0781°
argument of perigee: 84.9363°
revolutions per day: 13.70915437
mean anomaly at epoch: 332.8372°
orbit number at epoch: 61841

The dashed part of the orbit path shows where the satellite is in the earth's shadow,  

DLR